Probability
0 0 0 0 0 0 0 0 0 0 0 0 0 0 0 0 0 0 0 0 0 0 0 0 0 0 0 0 0 0 0 0 0 0 0 0 0 0
0 0 0 0 0 0 0 0 0 0 0 0 0 0 0 0 0 0 0 0 0 0 0 0 0 0 0 0 0 0 0 0 0 0 0 0 0 0
0 0 0 0 0 0 0 0 0 0 0 0 0 0 0 0 0 0 0 0 0 0 0 0 0 0 0 0 0 0 0 0 0 0 0 0 0 0
0 0 0 0 0 0 0 0 0 0 0 0 0 0 0 0 0 0 0 0 0 0 0 0 0 0 0 0 0 0 0 0 0 0 0 0 0 0
0 0 0 0 0 0 0 0 0 0 0 0 0 0 0 0 0 0 0 0 0 0 0 0 0 0 0 0 0 0 0 0 0 0 0 0 0 0
0 0 0 0 0 0 0 0 0 0 0 0 0 0 0 0 0 0 0 0 0 0 0 0 0 0 0 0 0 0 0 0 0 0 0 0 0 0
0 0 0 0 0 0 0 0 0 0 0 0 0 0 0 0 0 0 0 0 0 0 0 0 0 0 0 0 0 0 0 0 0 0 0 0 0 0
0 0 0 0 0 0 0 0 0 0 0 0 0 0 0 0 0 0 0 0 0 0 0 0 0 0 0 0 0 0 0 0 0 0 0 0 0 0
0 0 0 0 0 0 0 0 0 0 0 0 0 0 0 0 0 0 0 0 0 0 0 0 0 0 0 0 0 0 0 0 0 0 0 0 0 0
0 0 0 0 0 0 0 0 0 0 0 0 0 0 0 0 0 0 0 0 0 0 0 0 0 0 0 0 0 0 0 0 0 0 0 0 0 0
0 0 0 0 0 0 0 0 0 0 0 0 0 0 0 0 0 0 0 0 0 0 0 0 0 0 0 0 0 0 0 0 0 0 0 0 0 0
0 0 0 0 0 0 0 0 0 0 0 0 0 0 0 0 0 0 0 0 0 0 0 0 0 0 0 0 0 0 0 0 0 0 0 0 0 0
0 0 0 0 0 0 0 0 0 0 0 0 0 0 0 0 0 0 0 0 0 0 0 0 0 0 0 0 0 0 0 0 0 0 0 0 0 0
0 0 0 0 0 0 0 0 0 0 0 0 0 0 0 0 0 0 0 0 0 0 0 0 0 0 0 0 0 0 0 0 0 0 0 0 0 0
0 0 0 0 0 0 0 0 0 0 0 0 0 0 0 0 0 0 0 0 0 0 0 0 0 0 0 0 0 0 0 0 0 0 0 0 0 0
0 0 0 0 0 0 0 0 0 0 0 0 0 0 0 0 0 0 0 0 0 0 0 0 0 0 0 0 0 0 0 0 0 0 0 0 0 0
0 0 0 0 0 0 0 0 0 0 0 0 0 0 0 0 0 0 0 0 0 0 0 0 0 0 0 0 0 0 0 0 0 0 0 0 0 0
0 0 0 0 0 0 0 0 0 0 0 0 0 0 0 0 0 0 0 0 0 0 0 0 0 0 0 0 0 0 0 0 0 0 0 0 0 0
0 0 0 0 0 0 0 0 0 0 0 0 0 0 0 0 0 0 0 0 0 0 0 0 0 0 0 0 0 0 0 0 0 0 0 0 0 0
0 0 0 0 0 0 0 0 0 0 0 0 0 0 0 0 0 0 0 0 0 0 0 0 0 0 0 0 0 0 0 0 0 0 0 0 0 0
0 0 0 0 0 0 0 0 0 0 0 0 0 0 0 0 0 0 0 0 0 0 0 0 0 0 0 0 0 0 0 0 0 0 0 0 0 0
0 0 0 0 0 0 0 0 0 0 0 0 0 0 0 0 0 0 0 0 0 0 0 0 0 0 0 0 0 0 0 0 0 0 0 0 0 0
0 0 0 0 0 0 0 0 0 0 0 0 0 0 0 0 0 0 0 0 0 0 0 0 0 0 0 0 0 0 0 0 0 0 0 0 0 0
Wind_Speed
3 3 2 2 2 2 2 3 5 9 8 3 2 3 4 4 10 9 9 16 21 24 24 25 25 26 26 27 27 28 28 29 29 29 29 29 30 30
3 3 3 3 3 3 3 3 3 6 9 5 4 4 5 6 12 9 10 18 18 21 23 24 25 25 26 26 26 27 28 28 28 28 28 29 29 29
3 4 4 4 3 3 3 3 3 4 10 10 5 6 8 9 9 7 9 9 10 19 22 24 24 24 24 25 25 25 26 26 27 27 27 28 28 29
4 4 4 4 4 4 4 4 4 5 7 14 10 8 9 9 10 10 9 9 9 17 22 23 22 22 23 23 24 24 24 25 25 26 26 26 27 27
3 4 4 4 4 4 4 5 5 6 6 9 12 8 8 7 10 9 9 8 9 13 18 19 20 22 22 22 22 23 23 23 24 24 24 25 25 26
3 3 4 4 4 5 5 5 5 6 6 8 10 9 8 8 7 9 11 8 8 8 11 14 17 19 21 22 22 21 22 22 23 23 23 23 23 24
3 3 4 5 6 6 6 6 6 6 7 8 9 9 9 9 9 8 12 12 10 5 7 8 8 8 10 15 17 19 21 22 22 21 21 21 21 20
3 4 4 4 6 10 11 11 10 9 9 8 9 11 12 11 10 10 11 12 11 5 7 10 6 7 7 7 15 20 21 21 21 20 20 20 19 16
3 4 4 4 6 6 9 11 10 12 13 10 11 11 12 11 11 12 11 12 12 9 9 11 7 7 7 9 18 20 20 20 20 20 20 18 15 14
3 4 5 6 6 8 7 7 7 7 10 7 8 10 10 9 8 10 11 11 10 6 5 8 7 7 7 7 14 19 20 20 19 19 17 16 14 13
4 4 5 6 11 14 9 9 10 8 10 13 14 13 15 16 12 7 8 8 10 7 3 5 6 8 6 4 8 17 19 19 19 18 17 16 14 12
4 4 6 9 13 14 8 8 10 9 8 8 9 10 9 9 12 6 6 7 7 7 4 5 5 6 7 4 5 7 10 15 18 19 19 17 15 8
4 4 5 13 14 15 12 7 10 11 8 7 6 6 5 5 5 5 4 5 6 5 5 5 4 4 4 6 5 6 7 8 9 11 15 18 17 12
4 4 6 14 15 14 10 11 13 9 5 5 5 5 6 6 6 6 6 5 4 5 6 5 3 4 5 5 5 6 6 7 8 8 8 14 14 15
4 9 12 14 12 8 10 11 7 4 4 4 5 5 5 6 6 5 5 5 4 3 4 4 4 4 3 3 5 5 6 6 8 8 8 9 8 8
5 6 10 11 9 7 5 5 3 3 3 4 5 5 5 5 4 4 4 5 4 4 4 5 6 4 3 3 3 4 5 5 7 7 7 7 7 7
5 3 3 3 3 4 3 3 3 3 3 4 4 5 5 5 4 4 4 4 3 5 6 5 6 4 2 2 3 4 4 5 6 7 6 5 6 7
4 2 3 3 3 4 5 4 3 3 4 4 4 4 4 5 5 4 3 3 4 4 4 5 6 5 3 3 4 3 4 4 5 6 5 4 5 5
2 2 2 3 4 4 4 4 4 4 3 3 3 3 4 4 4 4 4 3 4 4 4 4 4 4 4 4 5 7 5 4 5 4 4 3 4 5
1 2 3 3 3 4 4 4 4 4 3 3 3 3 3 3 3 3 3 4 4 4 4 4 3 4 2 3 3 5 8 5 4 4 4 3 3 6
2 2 3 3 3 3 3 3 3 3 3 3 3 3 3 3 3 3 3 4 3 3 4 4 5 7 4 1 2 3 4 8 8 4 4 3 3 3
3 3 3 3 3 3 3 3 3 3 3 3 3 3 3 3 3 3 3 3 3 3 4 4 5 4 2 2 2 3 4 5 8 10 8 5 2 2
3 3 3 3 3 3 3 3 4 3 3 3 3 3 3 3 3 3 3 3 3 3 3 4 4 3 2 2 2 3 4 5 4 5 4 9 10 9
Wind_Direction
31 17 0 343 338 330 319 310 305 304 303 283 327 349 339 328 324 319 314 313 312 311 309 307 306 304 303 301 300 299 297 296 295 293 291 289 287 285
27 23 10 348 345 341 330 318 300 294 292 300 314 323 326 321 317 312 307 310 308 309 309 309 307 306 305 304 303 301 300 298 296 295 294 292 290 288
24 17 1 351 346 340 335 327 313 303 292 299 309 320 321 319 315 308 307 305 307 310 311 311 310 309 308 307 307 306 305 303 301 299 298 296 294 291
13 5 352 348 343 339 335 324 317 312 301 303 310 316 314 314 312 311 311 309 304 309 313 313 314 314 314 312 310 309 308 307 305 303 300 299 296 294
5 353 342 342 336 333 325 317 314 309 301 299 304 309 308 311 312 308 303 300 302 309 313 315 317 318 316 314 314 313 312 309 306 305 304 302 299 296
351 339 332 330 322 321 314 308 305 304 300 299 302 307 308 310 312 317 317 314 308 309 312 316 317 318 316 316 315 315 314 312 309 306 304 302 300 297
339 328 320 317 314 316 312 309 308 304 304 303 303 308 311 320 321 318 315 315 306 299 310 309 309 307 311 314 317 318 320 321 319 315 311 308 304 300
326 322 315 310 313 319 316 313 311 308 306 303 303 306 309 313 315 316 315 316 312 319 318 308 305 306 310 310 319 325 327 327 325 323 321 319 314 308
315 316 317 311 306 300 305 309 304 299 300 297 297 301 305 311 312 311 311 309 301 307 311 302 307 307 313 318 326 330 332 331 330 329 328 328 330 335
306 303 304 307 307 312 305 299 292 288 294 293 285 291 298 303 301 302 303 301 292 291 301 297 309 312 315 315 330 338 339 338 337 337 340 341 341 348
303 298 298 299 310 319 314 305 303 298 303 302 301 304 310 316 319 315 315 315 310 311 329 308 309 313 309 313 335 347 348 348 350 352 351 353 2 7
310 306 304 314 317 320 312 304 304 307 309 309 309 311 312 314 323 319 311 309 309 307 336 328 311 324 316 315 338 345 349 352 356 1 6 10 14 18
311 312 308 318 319 319 318 307 304 312 310 308 308 310 312 315 319 318 309 302 302 293 320 327 312 319 302 310 327 349 354 352 355 1 7 16 23 28
302 303 303 314 317 319 319 317 322 326 317 313 313 313 318 320 319 316 311 305 292 291 308 322 309 317 314 312 319 334 348 358 358 1 3 11 20 27
299 306 312 316 319 320 322 329 336 332 322 316 312 310 311 310 315 318 316 317 309 319 339 341 328 320 318 310 319 332 336 351 1 4 7 11 13 15
306 308 316 321 326 328 331 336 334 323 313 306 306 309 314 319 324 331 327 332 330 328 339 350 345 340 332 329 330 334 346 346 352 359 4 11 14 18
312 313 323 327 331 328 324 320 322 330 325 316 315 316 320 324 326 335 332 337 337 331 332 340 342 340 351 354 351 350 350 353 354 355 359 6 11 11
335 324 317 319 318 317 317 317 315 318 317 314 316 319 321 322 324 331 337 341 335 329 331 335 339 345 353 10 32 359 354 352 351 354 356 358 359 360
12 320 310 310 307 308 307 307 307 312 311 309 312 318 321 321 323 329 335 337 332 327 329 334 346 359 357 331 334 13 1 344 344 350 356 353 337 339
319 293 294 296 296 296 296 298 301 309 310 310 313 318 322 319 321 326 329 327 321 321 325 333 347 351 326 295 304 323 353 351 341 336 334 330 322 338
281 279 279 282 283 285 288 291 294 297 302 305 305 308 313 313 311 316 318 321 321 319 321 322 323 322 304 315 315 311 326 350 353 337 327 329 332 339
262 267 272 273 277 280 284 287 291 290 293 291 293 296 300 298 297 301 305 309 306 303 299 303 319 328 347 343 306 301 313 328 340 350 354 350 327 319
252 255 258 263 265 269 271 275 277 279 278 276 280 284 286 287 288 289 291 292 296 302 309 314 326 336 331 319 305 303 313 320 326 335 333 346 348 338